Weather in Morzokh

Russia / The Kabardino-Balkar Republic     43°34′02″N   43°50′29″E
temp.,
°C
wind,
m/s
gust,
m/s
humid.,
%
clouds,
%
prec.,
mm/h
press.,
hPa
HPBL,
m
19 may, wed
wed1900:00+14sw22870 0.0 101117
03:00+13ssw22775 0.0 101015
06:00+15s11765 0.0 100857
09:00+19nne22708 0.0 1009593
12:00+23nnw44576 0.0 10091217
15:00+17nw7108097 0.3 1013742
18:00+15nne2490100 0.8 1016299
21:00+14ssw228989 0.9 101845
20 may, thu
thu2000:00+14s228661 0.1 101727
03:00+11ssw229012 0.1 101716
06:00+13ssw238344 0.0 101781
09:00+18ese46604 0.0 1016946
12:00+22ese45485 0.0 10151311
15:00+23ese454622 0.0 10141262
18:00+21ese36640 0.0 1014223
21:00+15ssw11790 0.0 101511
21 may, fri
fri2100:00+13wsw22770 0.0 101512
03:00+13ssw11640 0.0 101311
06:00+15s01630 0.0 101327
09:00+21ene22550 0.0 1012346
12:00+25ene32505 0.0 1011703
15:00+27ene33505 0.0 1010868
18:00+26ene24651 0.0 100998
21:00+18wnw22841 0.0 101014
22 may, sat
sat2200:00+16wsw117643 0.0 100911
03:00+16s1165100 0.0 100812
06:00+18sse01659 0.0 100830
09:00+24ene22565 0.0 1007297
12:00+29ne334840 0.0 1006670
15:00+30ene234689 0.0 1005888
18:00+28n3461100 0.0 100452
21:00+22w337587 0.0 100647
23 may, sun
sun2300:00+20wsw2280100 0.1 100720
03:00+19w227993 0.2 100715
06:00+20s127998 0.1 100868
09:00+24ne2264100 0.1 1008799
12:00+27ne2257100 0.0 10091210
15:00+28e325391 0.0 10081600
18:00+22wnw3381100 5.3 101041
21:00+20wsw3389100 9.1 101153